| time (UTC) | temp C | wind direction | speed KPH | gust KPH | rain 1hr cm | rain 24hr cm | rain mn cm | humidity % | barometer mb |
| 20260504130424 | 14 | 262 | 14.5 | 17.7 | 0.00 | 0.00 | 0.00 | 63 | 4261.7 |
| 20260504110311 | 10 | 207 | 8.0 | 9.7 | 0.00 | 0.00 | 0.00 | 68 | 4261.5 |
| 20260504100229 | 10 | 216 | 8.0 | 9.7 | 0.00 | 0.00 | 0.00 | 67 | 4261.7 |
| 20260504081622 | 10 | 206 | 8.0 | 11.3 | 0.00 | 0.00 | 0.00 | 67 | 4262.3 |
| 20260504081118 | 10 | 202 | 8.0 | 9.7 | 0.00 | 0.00 | 0.00 | 66 | 4262.5 |
| 20260504080615 | 10 | 256 | 6.4 | 8.0 | 0.00 | 0.00 | 0.00 | 66 | 4262.4 |
| 20260504080111 | 10 | 202 | 8.0 | 9.7 | 0.00 | 0.00 | 0.00 | 66 | 4262.4 |
| 20260504050427 | 10 | 233 | 4.8 | 4.8 | 0.00 | 0.00 | 0.00 | 68 | 4264.7 |
| 20260504045924 | 10 | 253 | 4.8 | 8.0 | 0.00 | 0.00 | 0.00 | 67 | 4264.7 |
| 20260504045420 | 10 | 206 | 6.4 | 8.0 | 0.00 | 0.00 | 0.00 | 68 | 4264.6 |
| 20260504044916 | 10 | 219 | 8.0 | 8.0 | 0.00 | 0.00 | 0.00 | 68 | 4264.7 |
| 20260504044414 | 10 | 213 | 6.4 | 8.0 | 0.00 | 0.00 | 0.00 | 69 | 4264.9 |
| 20260504043911 | 10 | 231 | 6.4 | 8.0 | 0.00 | 0.00 | 0.00 | 68 | 4264.9 |
| 20260504043408 | 10 | 208 | 6.4 | 8.0 | 0.00 | 0.00 | 0.00 | 68 | 4264.8 |
| 20260504042906 | 10 | 217 | 6.4 | 8.0 | 0.00 | 0.00 | 0.00 | 68 | 4264.9 |
| 20260504042402 | 10 | 222 | 4.8 | 8.0 | 0.00 | 0.00 | 0.00 | 69 | 4264.8 |
| 20260504041858 | 10 | 192 | 6.4 | 9.7 | 0.00 | 0.00 | 0.00 | 68 | 4265.0 |
| 20260504041354 | 10 | 211 | 6.4 | 8.0 | 0.00 | 0.00 | 0.00 | 68 | 4265.0 |
| 20260504040850 | 10 | 200 | 4.8 | 8.0 | 0.00 | 0.00 | 0.00 | 68 | 4264.8 |
| 20260504040348 | 10 | 214 | 6.4 | 8.0 | 0.00 | 0.00 | 0.00 | 68 | 4265.0 |
| 20260504035844 | 10 | 240 | 4.8 | 4.8 | 0.00 | 0.00 | 0.00 | 68 | 4265.0 |
| 20260504035342 | 10 | 232 | 4.8 | 4.8 | 0.00 | 0.00 | 0.00 | 67 | 4265.1 |
| 20260504034838 | 10 | 208 | 1.6 | 3.2 | 0.00 | 0.00 | 0.00 | 67 | 4265.4 |
| 20260504034336 | 10 | 216 | 6.4 | 8.0 | 0.00 | 0.00 | 0.00 | 68 | 4265.3 |
| 20260504033833 | 10 | 225 | 6.4 | 8.0 | 0.00 | 0.00 | 0.00 | 68 | 4265.5 |
| 20260504033331 | 10 | 223 | 4.8 | 4.8 | 0.00 | 0.00 | 0.00 | 69 | 4265.3 |
| 20260504032827 | 10 | 242 | 3.2 | 3.2 | 0.00 | 0.00 | 0.00 | 70 | 4265.4 |
| 20260504032325 | 10 | 229 | 3.2 | 3.2 | 0.00 | 0.00 | 0.00 | 70 | 4265.6 |
| 20260504031821 | 10 | 241 | 3.2 | 4.8 | 0.00 | 0.00 | 0.00 | 70 | 4265.5 |
| 20260504031319 | 10 | 214 | 4.8 | 4.8 | 0.00 | 0.00 | 0.00 | 70 | 4265.7 |
| 20260504030815 | 10 | 218 | 6.4 | 8.0 | 0.00 | 0.00 | 0.00 | 70 | 4265.6 |
| 20260504030312 | 10 | 196 | 0.0 | 0.0 | 0.00 | 0.00 | 0.00 | 70 | 4265.6 |
| 20260504025808 | 10 | 233 | 4.8 | 8.0 | 0.00 | 0.00 | 0.00 | 71 | 4265.7 |
| 20260504025306 | 10 | 209 | 4.8 | 4.8 | 0.00 | 0.00 | 0.00 | 72 | 4265.7 |
| 20260504024802 | 10 | 235 | 3.2 | 4.8 | 0.00 | 0.00 | 0.00 | 72 | 4265.9 |
| 20260504024258 | 10 | 246 | 3.2 | 3.2 | 0.00 | 0.00 | 0.00 | 72 | 4265.9 |
| 20260504023755 | 9 | 237 | 3.2 | 4.8 | 0.00 | 0.00 | 0.00 | 72 | 4265.9 |
| 20260504023252 | 9 | 212 | 4.8 | 4.8 | 0.00 | 0.00 | 0.00 | 74 | 4265.8 |
| 20260504022747 | 9 | 235 | 0.0 | 0.0 | 0.00 | 0.00 | 0.00 | 75 | 4265.9 |
| 20260504022244 | 8 | 239 | 0.0 | 0.0 | 0.00 | 0.00 | 0.00 | 76 | 4265.8 |
| 20260504021741 | 8 | 236 | 0.0 | 0.0 | 0.00 | 0.00 | 0.00 | 76 | 4265.9 |
| 20260504021238 | 8 | 224 | 0.0 | 0.0 | 0.00 | 0.00 | 0.00 | 76 | 4266.0 |
| 20260504020735 | 8 | 246 | 1.6 | 3.2 | 0.00 | 0.00 | 0.00 | 76 | 4266.0 |
| 20260504020232 | 8 | 228 | 3.2 | 3.2 | 0.00 | 0.00 | 0.00 | 75 | 4266.0 |
| 20260504015728 | 8 | 235 | 0.0 | 0.0 | 0.00 | 0.00 | 0.00 | 75 | 4266.1 |
| 20260504015225 | 8 | 249 | 0.0 | 0.0 | 0.00 | 0.00 | 0.00 | 74 | 4266.1 |
| 20260504014720 | 9 | 232 | 0.0 | 0.0 | 0.00 | 0.00 | 0.00 | 73 | 4266.0 |
| 20260504014217 | 9 | 240 | 3.2 | 3.2 | 0.00 | 0.00 | 0.00 | 73 | 4266.1 |
| 20260504013715 | 9 | 232 | 0.0 | 0.0 | 0.00 | 0.00 | 0.00 | 72 | 4266.1 |
| 20260504013212 | 9 | 247 | 0.0 | 0.0 | 0.00 | 0.00 | 0.00 | 72 | 4265.9 |
| 20260504012709 | 10 | 255 | 0.0 | 0.0 | 0.00 | 0.00 | 0.00 | 71 | 4266.3 |
| 20260504012207 | 10 | 231 | 4.8 | 4.8 | 0.00 | 0.00 | 0.00 | 70 | 4266.1 |
| 20260504011703 | 10 | 223 | 0.0 | 0.0 | 0.00 | 0.00 | 0.00 | 70 | 4266.1 |
| 20260504011200 | 10 | 228 | 3.2 | 3.2 | 0.00 | 0.00 | 0.00 | 70 | 4266.2 |
| 20260504010656 | 10 | 244 | 3.2 | 3.2 | 0.00 | 0.00 | 0.00 | 69 | 4266.2 |
| 20260504010151 | 10 | 254 | 3.2 | 3.2 | 0.00 | 0.00 | 0.00 | 70 | 4266.2 |
| 20260504005649 | 10 | 229 | 3.2 | 3.2 | 0.00 | 0.00 | 0.00 | 68 | 4266.0 |
| 20260504005145 | 10 | 215 | 4.8 | 8.0 | 0.00 | 0.00 | 0.00 | 67 | 4266.3 |
| 20260504004644 | 10 | 238 | 4.8 | 4.8 | 0.00 | 0.00 | 0.00 | 67 | 4266.4 |
| 20260504004140 | 10 | 202 | 6.4 | 8.0 | 0.00 | 0.00 | 0.00 | 67 | 4266.4 |
| 20260504003637 | 10 | 230 | 4.8 | 8.0 | 0.00 | 0.00 | 0.00 | 67 | 4266.3 |
| 20260504003133 | 10 | 226 | 4.8 | 4.8 | 0.00 | 0.00 | 0.00 | 67 | 4266.1 |
| 20260504002630 | 10 | 216 | 8.0 | 9.7 | 0.00 | 0.00 | 0.00 | 66 | 4266.1 |
| 20260504002128 | 11 | 225 | 6.4 | 8.0 | 0.00 | 0.00 | 0.00 | 66 | 4266.2 |
| 20260504001625 | 11 | 219 | 14.5 | 16.1 | 0.00 | 0.00 | 0.00 | 65 | 4266.1 |
| 20260504001121 | 11 | 222 | 6.4 | 9.7 | 0.00 | 0.00 | 0.00 | 65 | 4266.4 |
| 20260504000619 | 11 | 239 | 9.7 | 12.9 | 0.00 | 0.00 | 0.00 | 65 | 4266.4 |
| 20260504000116 | 11 | 219 | 8.0 | 9.7 | 0.00 | 0.00 | 0.00 | 65 | 4266.4 |
| 20260503235614 | 11 | 231 | 8.0 | 9.7 | 0.00 | 0.00 | 0.00 | 65 | 4266.5 |
| 20260503235110 | 11 | 238 | 11.3 | 14.5 | 0.00 | 0.00 | 0.00 | 63 | 4266.6 |
| 20260503234609 | 11 | 216 | 17.7 | 20.9 | 0.00 | 0.00 | 0.00 | 64 | 4266.8 |
| 20260503234106 | 11 | 222 | 12.9 | 14.5 | 0.00 | 0.00 | 0.00 | 64 | 4266.8 |
| 20260503233603 | 11 | 233 | 25.7 | 32.2 | 0.00 | 0.00 | 0.00 | 63 | 4267.0 |
| 20260503233058 | 11 | 238 | 12.9 | 14.5 | 0.00 | 0.00 | 0.00 | 62 | 4267.0 |
| 20260503232556 | 11 | 226 | 11.3 | 14.5 | 0.00 | 0.00 | 0.00 | 63 | 4266.8 |
| 20260503232053 | 11 | 192 | 14.5 | 17.7 | 0.00 | 0.00 | 0.00 | 62 | 4266.9 |
| 20260503231551 | 11 | 230 | 19.3 | 24.1 | 0.00 | 0.00 | 0.00 | 62 | 4267.0 |
| 20260503231047 | 12 | 212 | 17.7 | 24.1 | 0.00 | 0.00 | 0.00 | 62 | 4267.1 |
| 20260503230544 | 12 | 239 | 25.7 | 32.2 | 0.00 | 0.00 | 0.00 | 60 | 4266.8 |
| 20260503230042 | 12 | 224 | 17.7 | 20.9 | 0.00 | 0.00 | 0.00 | 62 | 4266.9 |
| 20260503225538 | 12 | 243 | 17.7 | 22.5 | 0.00 | 0.00 | 0.00 | 61 | 4267.1 |
| 20260503225033 | 12 | 248 | 25.7 | 33.8 | 0.00 | 0.00 | 0.00 | 59 | 4267.0 |
| 20260503224531 | 13 | 251 | 24.1 | 29.0 | 0.00 | 0.00 | 0.00 | 58 | 4266.7 |
| 20260503224029 | 13 | 228 | 24.1 | 29.0 | 0.00 | 0.00 | 0.00 | 58 | 4266.7 |
| 20260503223526 | 13 | 232 | 24.1 | 25.7 | 0.00 | 0.00 | 0.00 | 55 | 4266.7 |
| 20260503223022 | 14 | 243 | 22.5 | 29.0 | 0.00 | 0.00 | 0.00 | 54 | 4266.5 |
| 20260503222520 | 14 | 250 | 35.4 | 41.8 | 0.00 | 0.00 | 0.00 | 52 | 4266.3 |
| 20260503222018 | 15 | 220 | 30.6 | 40.2 | 0.00 | 0.00 | 0.00 | 51 | 4266.5 |
| 20260503221516 | 15 | 234 | 32.2 | 37.0 | 0.00 | 0.00 | 0.00 | 47 | 4266.3 |
| 20260503221013 | 15 | 231 | 24.1 | 27.4 | 0.00 | 0.00 | 0.00 | 39 | 4266.3 |
| 20260503220509 | 16 | 233 | 16.1 | 20.9 | 0.00 | 0.00 | 0.00 | 38 | 4266.3 |
| 20260503220006 | 16 | 219 | 22.5 | 24.1 | 0.00 | 0.00 | 0.00 | 38 | 4266.3 |
| 20260503215503 | 15 | 205 | 24.1 | 38.6 | 0.00 | 0.00 | 0.00 | 38 | 4266.0 |
| 20260503215000 | 15 | 226 | 27.4 | 35.4 | 0.00 | 0.00 | 0.00 | 38 | 4266.2 |
| 20260503214458 | 15 | 214 | 16.1 | 17.7 | 0.00 | 0.00 | 0.00 | 37 | 4266.3 |
| 20260503213955 | 16 | 205 | 19.3 | 24.1 | 0.00 | 0.00 | 0.00 | 38 | 4266.3 |
| 20260503213453 | 16 | 243 | 24.1 | 27.4 | 0.00 | 0.00 | 0.00 | 36 | 4266.2 |
| 20260503212949 | 16 | 234 | 27.4 | 27.4 | 0.00 | 0.00 | 0.00 | 37 | 4266.5 |
| 20260503212447 | 16 | 206 | 20.9 | 25.7 | 0.00 | 0.00 | 0.00 | 37 | 4266.1 |
| 20260503211944 | 16 | 235 | 25.7 | 32.2 | 0.00 | 0.00 | 0.00 | 36 | 4266.4 |
| 20260503211441 | 16 | 222 | 22.5 | 29.0 | 0.00 | 0.00 | 0.00 | 36 | 4266.1 |
| 20260503210936 | 16 | 228 | 29.0 | 40.2 | 0.00 | 0.00 | 0.00 | 36 | 4266.4 |
| 20260503210433 | 16 | 221 | 25.7 | 32.2 | 0.00 | 0.00 | 0.00 | 35 | 4266.5 |
| 20260503205928 | 16 | 226 | 20.9 | 32.2 | 0.00 | 0.00 | 0.00 | 37 | 4266.5 |
| 20260503205426 | 16 | 204 | 19.3 | 25.7 | 0.00 | 0.00 | 0.00 | 39 | 4266.4 |
| 20260503204921 | 16 | 229 | 27.4 | 38.6 | 0.00 | 0.00 | 0.00 | 35 | 4266.6 |
| 20260503204419 | 16 | 248 | 22.5 | 32.2 | 0.00 | 0.00 | 0.00 | 37 | 4266.8 |
| 20260503203916 | 16 | 264 | 27.4 | 32.2 | 0.00 | 0.00 | 0.00 | 36 | 4266.8 |
| 20260503203413 | 16 | 239 | 27.4 | 33.8 | 0.00 | 0.00 | 0.00 | 35 | 4267.0 |
| 20260503202910 | 16 | 224 | 35.4 | 43.5 | 0.00 | 0.00 | 0.00 | 33 | 4266.9 |
| 20260503202409 | 16 | 226 | 20.9 | 25.7 | 0.00 | 0.00 | 0.00 | 36 | 4266.7 |
| 20260503201907 | 16 | 235 | 17.7 | 22.5 | 0.00 | 0.00 | 0.00 | 38 | 4266.7 |
| 20260503201403 | 16 | 220 | 30.6 | 33.8 | 0.00 | 0.00 | 0.00 | 36 | 4266.8 |
| 20260503200901 | 16 | 218 | 29.0 | 33.8 | 0.00 | 0.00 | 0.00 | 35 | 4266.8 |
| 20260503200356 | 16 | 226 | 27.4 | 35.4 | 0.00 | 0.00 | 0.00 | 34 | 4267.0 |
| 20260503195854 | 17 | 234 | 20.9 | 25.7 | 0.00 | 0.00 | 0.00 | 37 | 4266.9 |
| 20260503195350 | 17 | 235 | 24.1 | 29.0 | 0.00 | 0.00 | 0.00 | 34 | 4267.1 |
| 20260503194848 | 16 | 260 | 16.1 | 20.9 | 0.00 | 0.00 | 0.00 | 37 | 4267.1 |
| 20260503194343 | 16 | 238 | 12.9 | 16.1 | 0.00 | 0.00 | 0.00 | 36 | 4267.0 |
| 20260503193840 | 16 | 220 | 24.1 | 32.2 | 0.00 | 0.00 | 0.00 | 34 | 4267.4 |
| 20260503193336 | 16 | 219 | 24.1 | 29.0 | 0.00 | 0.00 | 0.00 | 34 | 4267.3 |
| 20260503192832 | 16 | 217 | 22.5 | 27.4 | 0.00 | 0.00 | 0.00 | 35 | 4267.3 |
| 20260503192327 | 16 | 225 | 27.4 | 37.0 | 0.00 | 0.00 | 0.00 | 34 | 4267.3 |
| 20260503191824 | 16 | 235 | 20.9 | 24.1 | 0.00 | 0.00 | 0.00 | 34 | 4267.5 |
| 20260503191321 | 16 | 245 | 29.0 | 32.2 | 0.00 | 0.00 | 0.00 | 36 | 4267.5 |
| 20260503190818 | 16 | 247 | 38.6 | 48.3 | 0.00 | 0.00 | 0.00 | 36 | 4267.7 |
| 20260503190315 | 16 | 219 | 30.6 | 35.4 | 0.00 | 0.00 | 0.00 | 36 | 4267.8 |
| 20260503185812 | 16 | 222 | 25.7 | 32.2 | 0.00 | 0.00 | 0.00 | 35 | 4268.0 |
| 20260503185308 | 16 | 225 | 19.3 | 24.1 | 0.00 | 0.00 | 0.00 | 37 | 4267.9 |
| 20260503184808 | 16 | 238 | 20.9 | 27.4 | 0.00 | 0.00 | 0.00 | 35 | 4268.0 |
| 20260503184304 | 16 | 234 | 24.1 | 29.0 | 0.00 | 0.00 | 0.00 | 36 | 4267.9 |
| 20260503183800 | 16 | 255 | 25.7 | 32.2 | 0.00 | 0.00 | 0.00 | 35 | 4268.0 |
| 20260503183258 | 16 | 221 | 29.0 | 37.0 | 0.00 | 0.00 | 0.00 | 34 | 4268.0 |
| 20260503182755 | 16 | 214 | 20.9 | 24.1 | 0.00 | 0.00 | 0.00 | 37 | 4268.3 |
| 20260503182254 | 15 | 214 | 24.1 | 27.4 | 0.00 | 0.00 | 0.00 | 35 | 4268.2 |
| 20260503181750 | 15 | 227 | 25.7 | 37.0 | 0.00 | 0.00 | 0.00 | 36 | 4268.3 |
| 20260503181248 | 16 | 224 | 30.6 | 37.0 | 0.00 | 0.00 | 0.00 | 36 | 4268.6 |
| 20260503180744 | 16 | 258 | 20.9 | 32.2 | 0.00 | 0.00 | 0.00 | 33 | 4268.3 |
| 20260503180242 | 16 | 223 | 16.1 | 17.7 | 0.00 | 0.00 | 0.00 | 35 | 4268.5 |
| 20260503175738 | 16 | 286 | 14.5 | 20.9 | 0.00 | 0.00 | 0.00 | 36 | 4268.4 |
| 20260503175237 | 16 | 215 | 27.4 | 35.4 | 0.00 | 0.00 | 0.00 | 36 | 4268.6 |
| 20260503174732 | 15 | 223 | 24.1 | 33.8 | 0.00 | 0.00 | 0.00 | 34 | 4268.6 |
| 20260503174231 | 16 | 233 | 22.5 | 24.1 | 0.00 | 0.00 | 0.00 | 38 | 4268.7 |
| 20260503173730 | 16 | 235 | 20.9 | 22.5 | 0.00 | 0.00 | 0.00 | 39 | 4268.9 |
| 20260503173227 | 15 | 235 | 24.1 | 33.8 | 0.00 | 0.00 | 0.00 | 35 | 4268.7 |
| 20260503172724 | 15 | 234 | 24.1 | 32.2 | 0.00 | 0.00 | 0.00 | 37 | 4269.0 |
| 20260503172221 | 15 | 256 | 20.9 | 24.1 | 0.00 | 0.00 | 0.00 | 38 | 4268.8 |
| 20260503171717 | 15 | 285 | 17.7 | 24.1 | 0.00 | 0.00 | 0.00 | 37 | 4268.9 |
| 20260503171215 | 15 | 235 | 19.3 | 24.1 | 0.00 | 0.00 | 0.00 | 38 | 4269.0 |
| 20260503170712 | 15 | 256 | 41.8 | 49.9 | 0.00 | 0.00 | 0.00 | 37 | 4269.2 |
| 20260503170208 | 15 | 219 | 33.8 | 41.8 | 0.00 | 0.00 | 0.00 | 39 | 4269.0 |
| 20260503160130 | 13 | 228 | 17.7 | 22.5 | 0.00 | 0.00 | 0.00 | 49 | 4269.9 |
| 20260503150600 | 12 | 225 | 17.7 | 22.5 | 0.00 | 0.00 | 0.00 | 51 | 4270.4 |
| 20260503130943 | 8 | 218 | 24.1 | 27.4 | 0.00 | 0.00 | 0.00 | 59 | 4270.9 |